Miscellaneous Local Product
Issued by NWS North Platte, NE

Home | Current Version | Previous Version | Graphics & Text | Print | Product List | Glossary On
Versions: 1 2 3 4 5 6 7 8 9 10 11 12 13 14 15 16 17 18 19 20 21 22 23 24 25 26 27 28 29 30 31 32 33 34 35 36 37 38 39 40 41 42 43 44 45 46 47 48 49 50
000
AXUS43 KLBF 051210
MISLBF


WESTERN AND NORTH CENTRAL NEBRASKA HOURLY WEATHER ROUNDUP
NATIONAL WEATHER SERVICE NORTH PLATTE NE
700 AM CDT SUN JUL 05 2015

***STATIONS NOT REPORTING VARIABLES SUCH AS SKY/WEATHER OR
PRESSURE ARE PROVIDED BY THE NEBRASKA DEPARTMENT OF
ROADS...RAWS...AND APRS NETWORKS...AND ARE NOT UNDER
NATIONAL WEATHER SERVICE QUALITY CONTROL***

...OBSERVATIONS IN AND NEAR THE EASTERN PANHANDLE OF NEBRASKA...

CITY           SKY/WX    TMP DP  RH WIND       PRES   REMARKS
PINE RIDGE     CLEAR     68  62  81 SW6       29.79F
CHADRON        CLEAR     63  61  93 NW3       29.79F
ALLIANCE       CLEAR     64  62  93 S7        29.85S
SIDNEY         PTCLDY    61  59  93 S3        29.90F
WHITECLAY        N/A     65  61  86 SE9         N/A
CRESCENT LAKE    N/A     67  64  89 SE3         N/A
BIG SPRINGS      N/A     66  62  86 S12         N/A
$$

...OBSERVATIONS IN NORTH CENTRAL NEBRASKA...

CITY           SKY/WX    TMP DP  RH WIND       PRES   REMARKS
VALENTINE      CLEAR     68  57  68 S5        29.79R
THEDFORD       PTCLDY    72  65  81 S10       29.83F
AINSWORTH      CLEAR     74  64  71 S10       29.80R
O`NEILL        PTCLDY    69  66  88 SE10      29.82S
ORD            CLOUDY    71  64  78 E6        29.85R
BROKEN BOW     MOCLDY    69  65  86 E9        29.85F
VALENTINE NWR    N/A     72  62  72 S9          N/A
SPRINGVIEW       N/A     68  64  86 CALM        N/A
HALSEY           N/A     71  64  78 S3G14       N/A
BREWSTER         N/A     73  70  89 S7          N/A
ROSE             N/A     83  81  94 S14         N/A  HX  95
NEWPORT          N/A     72  67  83 S5          N/A
SARGENT          N/A     67  64  90 CALM        N/A
CHAMBERS         N/A     70  65  85 S13         N/A
EWING            N/A     69  67  93 S7G14       N/A
$$

...OBSERVATIONS IN SOUTHWEST NEBRASKA AND FAR NORTHEAST COLORADO...

CITY           SKY/WX    TMP DP  RH WIND       PRES   REMARKS
WRAY           FAIR      66  58  76 S3        29.89S
HOLYOKE        FAIR      61  57  88 SE5       29.89R
IMPERIAL       CLEAR     70  63  78 S10       29.86S
OGALLALA       CLEAR     67  63  85 CALM      29.85S
NORTH PLATTE   PTCLDY    72  63  73 E7        29.85R
MCCOOK         CLEAR     77  61  57 SW13      29.83F
LEXINGTON      PTCLDY    71  66  85 S10       29.84S
PAXTON           N/A     67  63  88 CALM        N/A
GOTHENBURG       N/A     71  63  75 S3          N/A
CALLAWAY         N/A     68  65  92 S7          N/A
$$

...NORTH PLATTE AREA...

CITY           SKY/WX    TMP DP  RH WIND       PRES   REMARKS
AIRPORT        PTCLDY    72  63  73 E7        29.85R
DOWNTOWN         N/A     72  65  78 CALM        N/A
HILLCREST        N/A     72  65  78 S7          N/A
$$

...SOME WEATHER OBSERVATIONS FROM AROUND THE REGION...

CITY           SKY/WX    TMP DP  RH WIND       PRES   REMARKS
DENVER         MOCLDY    63  51  65 S8        30.00R
LARAMIE        MOCLDY    55  47  74 S6        30.14R
CHEYENNE       PTCLDY    64  50  60 NW6       30.02R
SCOTTSBLUFF    MOCLDY    63  61  93 S3        29.87S
RAPID CITY     PTCLDY    65  61  87 E3        29.77F
PIERRE         CLEAR     67  65  93 E6        29.72S
WINNER         FAIR      70  64  81 E8        29.77R
SIOUX FALLS    TSTM      68  64  87 CALM      29.93R FOG
OMAHA          CLOUDY    70  64  81 S12       29.93R
GRAND ISLAND   MOCLDY    71  65  81 S14G22    29.85F
KANSAS CITY    MOCLDY    69  66  90 SE9       29.98S FOG
WICHITA        MOCLDY    74  69  85 S9        29.93S
HAYS           MOCLDY    72  61  68 S8        29.88F
LIBERAL        CLEAR     70  61  73 S10       29.96S
GOODLAND       CLEAR     67  62  84 S14       29.89F
$$



USA.gov is the U.S. government's official web portal to all federal, state and local government web resources and services.